Weather History for Glendive, MT

Change the Weather History Date:

Friday, January 31, 2014

  Actual Average Record
Temperature  
Mean Temperature 4 °F -  
Max Temperature 21 °F 28 °F 48 °F (2012)
Min Temperature -13 °F 10 °F -20 °F (2011)
Degree Days  
Heating Degree Days 61    
Moisture  
Dew Point -3 °F    
Average Humidity 75    
Maximum Humidity 100    
Minimum Humidity 45    
Precipitation  
Precipitation 0.00 in - - ()
Sea Level Pressure  
Sea Level Pressure 29.84 in    
Wind  
Wind Speed 11 mph (WSW)    
Max Wind Speed 22 mph    
Max Gust Speed 32 mph    
Visibility 10 miles    
Events      
Averages and records for this station are not official NWS values.
T = Trace of Precipitation, MM = Missing Value Source: NWS Daily Summary

Daily Weather History Graph

Daily Weather History Graph

Search for Another Location

Airport:

Trip Planner

Search our weather history database for the weather conditions in past years. The results will help you decide how hot, cold, wet, or windy it might be!

Date:

Astronomy

Jan. 31, 2014 Rise Set
Actual Time 7:25 AM MST 5:00 PM MST
Civil Twilight 6:52 AM MST 5:33 PM MST
Nautical Twilight 6:16 AM MST 6:09 PM MST
Astronomical Twilight 5:40 AM MST 6:45 PM MST
Moon 7:30 AM MST (1/31) 6:36 PM MST (1/31)
Length of Visible Light 10h 40m
Length of Day
9h 34m
New Moon, 1% of the Moon is Illuminated
Jan 31
New Moon
Feb 6
First Quarter
Feb 14
Full
Feb 22
Last Quarter
Mar 1
New

Hourly Weather History & Observations

Time (MST) Temp. Windchill Dew Point Humidity Pressure Visibility Wind Dir Wind Speed Gust Speed Precip Events Conditions
12:15 AM -9.4 °F -26.8 °F -14.8 °F 77% 29.96 in 10.0 mi WSW 9.2 mph - N/A   Clear
12:35 AM -7.6 °F -25.7 °F -7.6 °F 100% 29.95 in 10.0 mi WSW 10.4 mph - N/A   Clear
12:55 AM -7.6 °F -24.6 °F -16.6 °F 65% 29.95 in 10.0 mi SW 9.2 mph - N/A   Clear
1:15 AM -7.6 °F -25.7 °F -7.6 °F 100% 29.94 in 10.0 mi SSW 10.4 mph - N/A   Clear
1:35 AM -7.6 °F -25.7 °F -14.8 °F 71% 29.93 in 10.0 mi SW 10.4 mph - N/A   Clear
1:55 AM -7.6 °F -26.6 °F -11.2 °F 84% 29.93 in 10.0 mi WSW 11.5 mph - N/A   Clear
2:15 AM -7.6 °F -25.7 °F -14.8 °F 71% 29.93 in 10.0 mi SW 10.4 mph - N/A   Clear
2:35 AM -7.6 °F -24.6 °F -11.2 °F 84% 29.93 in 10.0 mi WSW 9.2 mph - N/A   Clear
3:15 AM -7.6 °F -23.4 °F -9.4 °F 92% 29.91 in 10.0 mi West 8.1 mph - N/A   Clear
3:35 AM -9.4 °F -18.6 °F -22.0 °F 54% 29.90 in 10.0 mi West 3.5 mph - N/A   Clear
3:55 AM -9.4 °F -20.9 °F -9.4 °F 100% 29.90 in 10.0 mi West 4.6 mph - N/A   Clear
4:15 AM -11.2 °F -24.8 °F -23.8 °F 54% 29.89 in 10.0 mi West 5.8 mph - N/A   Clear
4:35 AM -11.2 °F -20.6 °F -18.4 °F 70% 29.89 in 10.0 mi SSW 3.5 mph - N/A   Clear
4:55 AM -13.0 °F -28.6 °F -18.4 °F 77% 29.88 in 10.0 mi SW 6.9 mph - N/A   Clear
5:15 AM -9.4 °F -26.8 °F -9.4 °F 100% 29.87 in 10.0 mi SW 9.2 mph - N/A   Clear
5:35 AM -9.4 °F -25.6 °F -25.6 °F 45% 29.87 in 10.0 mi SW 8.1 mph - N/A   Clear
5:55 AM -11.2 °F -23.0 °F -11.2 °F 100% 29.86 in 10.0 mi SSW 4.6 mph - N/A   Clear
6:35 AM -7.6 °F -24.6 °F -7.6 °F 100% 29.84 in 10.0 mi SSW 9.2 mph - N/A   Clear
6:55 AM -7.6 °F -23.4 °F -16.6 °F 65% 29.83 in 10.0 mi SSW 8.1 mph - N/A   Clear
7:15 AM -9.4 °F -26.8 °F -9.4 °F 100% 29.82 in 10.0 mi SSW 9.2 mph - N/A   Clear
7:35 AM -9.4 °F -25.6 °F -11.2 °F 92% 29.82 in 10.0 mi South 8.1 mph - N/A   Clear
7:55 AM -9.4 °F -26.8 °F -11.2 °F 92% 29.81 in 10.0 mi South 9.2 mph - N/A   Clear
8:15 AM -5.8 °F -19.9 °F -7.6 °F 92% 29.80 in 10.0 mi SW 6.9 mph - N/A   Clear
8:35 AM -2.2 °F -16.8 °F -2.2 °F 100% 29.80 in 10.0 mi SW 8.1 mph - N/A   Clear
8:55 AM -0.4 °F -13.4 °F -5.8 °F 78% 29.80 in 10.0 mi WSW 6.9 mph - N/A   Clear
9:15 AM 1.4 °F -11.3 °F -0.4 °F 92% 29.79 in 10.0 mi SSW 6.9 mph - N/A   Clear
9:35 AM 3.2 °F -7.8 °F -0.4 °F 85% 29.79 in 10.0 mi SW 5.8 mph - N/A   Clear
9:55 AM 3.2 °F -9.1 °F -0.4 °F 85% 29.78 in 10.0 mi SW 6.9 mph - N/A   Clear
10:15 AM 6.8 °F -6.9 °F 3.2 °F 85% 29.78 in 10.0 mi SSW 9.2 mph - N/A   Clear
10:35 AM 6.8 °F -7.8 °F -2.2 °F 67% 29.77 in 10.0 mi SSW 10.4 mph - N/A   Clear
10:55 AM 6.8 °F -8.6 °F -2.2 °F 67% 29.77 in 10.0 mi South 11.5 mph - N/A   Clear
11:15 AM 8.6 °F -7.0 °F 3.2 °F 79% 29.76 in 10.0 mi SSW 12.7 mph - N/A   Clear
11:35 AM 10.4 °F -4.8 °F 3.2 °F 73% 29.74 in 10.0 mi SSW 12.7 mph - N/A   Clear
11:55 AM 10.4 °F -4.8 °F 1.4 °F 67% 29.73 in 10.0 mi SSW 12.7 mph - N/A   Clear
12:15 PM 12.2 °F -3.1 °F 3.2 °F 67% 29.72 in 10.0 mi SSW 13.8 mph - N/A   Clear
12:35 PM 12.2 °F -1.8 °F 5.0 °F 73% 29.72 in 10.0 mi SSW 11.5 mph - N/A   Clear
12:55 PM 15.8 °F 2.7 °F 6.8 °F 68% 29.70 in 10.0 mi SW 11.5 mph - N/A   Clear
1:15 PM 15.8 °F 1.4 °F 6.8 °F 68% 29.71 in 10.0 mi WSW 13.8 mph - N/A   Clear
1:35 PM 17.6 °F 6.4 °F 6.8 °F 63% 29.70 in 10.0 mi WSW 9.2 mph - N/A   Clear
1:55 PM 17.6 °F 5.7 °F 8.6 °F 68% 29.71 in 10.0 mi West 10.4 mph - N/A   Clear
2:15 PM 19.4 °F 7.2 °F 8.6 °F 63% 29.70 in 10.0 mi West 11.5 mph - N/A   Clear
2:35 PM 21.2 °F 6.8 °F 6.8 °F 54% 29.71 in 10.0 mi West 17.3 mph - N/A   Clear
2:55 PM 21.2 °F 7.3 °F 8.6 °F 58% 29.72 in 10.0 mi West 16.1 mph - N/A   Clear
3:15 PM 19.4 °F 4.5 °F 6.8 °F 58% 29.72 in 10.0 mi West 17.3 mph 21.9 mph N/A   Clear
3:35 PM 19.4 °F 5.0 °F 6.8 °F 58% 29.72 in 10.0 mi West 16.1 mph 21.9 mph N/A   Clear
3:55 PM 19.4 °F 4.1 °F 8.6 °F 63% 29.74 in 10.0 mi West 18.4 mph 24.2 mph N/A   Partly Cloudy
4:15 PM 15.8 °F -1.5 °F 3.2 °F 58% 29.75 in 10.0 mi West 20.7 mph 29.9 mph N/A   Partly Cloudy
4:35 PM 15.8 °F -1.9 °F 3.2 °F 58% 29.76 in 10.0 mi West 21.9 mph 32.2 mph N/A   Partly Cloudy
4:55 PM 14.0 °F -3.4 °F 3.2 °F 62% 29.78 in 10.0 mi West 19.6 mph 26.5 mph N/A   Partly Cloudy
5:15 PM 12.2 °F -4.8 °F 3.2 °F 67% 29.80 in 10.0 mi West 17.3 mph 21.9 mph N/A   Partly Cloudy
5:35 PM 12.2 °F -4.8 °F 6.8 °F 79% 29.80 in 7.0 mi WNW 17.3 mph 23.0 mph N/A   Mostly Cloudy
5:55 PM 12.2 °F -4.8 °F 6.8 °F 79% 29.81 in 9.0 mi WNW 17.3 mph 21.9 mph N/A   Overcast
6:15 PM 12.2 °F -4.3 °F 6.8 °F 79% 29.82 in 4.0 mi WNW 16.1 mph - N/A   Scattered Clouds
6:35 PM 12.2 °F -5.3 °F 8.6 °F 85% 29.83 in 5.0 mi WNW 18.4 mph 24.2 mph N/A   Clear
6:55 PM 12.2 °F -5.3 °F 3.2 °F 67% 29.85 in 10.0 mi NW 18.4 mph 25.3 mph N/A   Scattered Clouds
7:15 PM 10.4 °F -7.2 °F 3.2 °F 73% 29.86 in 10.0 mi WNW 17.3 mph 23.0 mph N/A   Mostly Cloudy
7:35 PM 10.4 °F -5.4 °F 3.2 °F 73% 29.86 in 10.0 mi WNW 13.8 mph 24.2 mph N/A   Overcast
7:55 PM 10.4 °F -9.1 °F 3.2 °F 73% 29.87 in 10.0 mi WNW 21.9 mph 26.5 mph N/A   Overcast
8:15 PM 10.4 °F -4.8 °F 3.2 °F 73% 29.88 in 10.0 mi NW 12.7 mph - N/A   Overcast
8:35 PM 10.4 °F -7.2 °F 1.4 °F 67% 29.90 in 10.0 mi NW 17.3 mph - N/A   Mostly Cloudy
8:55 PM 8.6 °F -10.0 °F -0.4 °F 67% 29.91 in 10.0 mi WNW 18.4 mph 23.0 mph N/A   Scattered Clouds
9:15 PM 6.8 °F -10.7 °F -0.4 °F 72% 29.91 in 10.0 mi NW 15.0 mph 20.7 mph N/A   Clear
9:35 PM 6.8 °F -9.3 °F -2.2 °F 67% 29.92 in 10.0 mi NW 12.7 mph - N/A   Clear
9:55 PM 5.0 °F -10.8 °F -2.2 °F 72% 29.93 in 10.0 mi WNW 11.5 mph - N/A   Clear
10:15 PM 5.0 °F -5.6 °F -0.4 °F 78% 29.94 in 10.0 mi NW 5.8 mph - N/A   Clear
10:35 PM 3.2 °F -12.2 °F -2.2 °F 78% 29.94 in 10.0 mi WNW 10.4 mph - N/A   Partly Cloudy
10:55 PM 3.2 °F -13.9 °F -4.0 °F 72% 29.95 in 10.0 mi WNW 12.7 mph - N/A   Partly Cloudy
11:15 PM 1.4 °F -14.5 °F -4.0 °F 78% 29.97 in 10.0 mi West 10.4 mph - N/A   Clear
11:35 PM 3.2 °F -13.1 °F -0.4 °F 85% 29.98 in 10.0 mi WNW 11.5 mph 17.3 mph N/A   Mostly Cloudy
11:55 PM 5.0 °F -8.1 °F -2.2 °F 72% 30.00 in 10.0 mi West 8.1 mph - N/A   Overcast